Regional Weather Roundup
Issued by NWS

Home | Current Version | Previous Version | Text Only | Print | Product List | Glossary On
Versions: 1 2 3 4 5 6 7 8 9 10 11 12 13 14 15 16 17 18 19 20 21 22 23 24 25 26 27 28 29 30 31 32 33 34 35 36 37 38 39 40 41 42 43 44 45 46 47 48 49 50
000
ASHW40 PHFO 220710
RWRHI

WEATHER ROUNDUP FOR HAWAII
NATIONAL WEATHER SERVICE HONOLULU HI
900 PM HST SUN SEP 21 2014

THIS IS AN AUTOMATED REPORT THAT HAS NOT BEEN QUALITY CONTROLLED.

NOTE..."FAIR" INDICATES FEW OR NO CLOUDS BELOW 12,000 FEET WITH NO
SIGNIFICANT WEATHER AND/OR OBSTRUCTIONS TO VISIBILITY.

* - THESE SITES REPORT LIMITED FIELDS

HIZ001>004-220800-
KAUAI-NIIHAU-

CITY           SKY/WX    TMP DP  RH WIND       PRES   REMARKS
LIHUE APT      CLOUDY    82  73  74 NE13      30.04R
PORT ALLEN*      N/A     81 N/A N/A N5          N/A
POIPU*           N/A     81 N/A N/A VRB3        N/A
PRINCEVILLE*   NOT AVBL
KOKOLE POINT*  NOT AVBL
MOLOAA DAIRY*  NOT AVBL
WAIMEA HTS*    NOT AVBL
PUU OPAE*      NOT AVBL
PUU LUA*       NOT AVBL
MAKAHA RIDGE*  NOT AVBL
$$

HIZ005>011-220800-
OAHU-

CITY           SKY/WX    TMP DP  RH WIND       PRES   REMARKS
HONOLULU       PTCLDY    82  70  66 E7        30.01R
KALAELOA       MOCLDY    81  71  71 CALM      30.03R
KANEOHE MCB    PTCLDY    82  73  73 E3        30.03R
WHEELER FIELD  NOT AVBL
BELLOWS*       NOT AVBL
KAHUKU*        NOT AVBL
WHEELER*       NOT AVBL
WAIANAE HARBOR NOT AVBL
DILLINGHAM*      N/A     81  72  74 E1          N/A
KAHUKU TRN*      N/A     77  72  83 E7G16       N/A
KAWAILOA*      NOT AVBL
KII*             N/A     81  73  78 E12         N/A
MAKUA RANGE*     N/A     81  73  78 SE2         N/A
OAHU FOREST NW NOT AVBL
SCHOFIELD BRK*   N/A     75  70  83 MISG        N/A
SCHOFIELD S*   NOT AVBL
WAIANAE VLY*   NOT AVBL
KUAOKALA*      NOT AVBL
HONOULIUULI*   NOT AVBL
MOKUOLOE IS*     N/A    N/A N/A N/A MISG        N/A
PALEHUA*       NOT AVBL
WAIAWA PHB*    NOT AVBL
$$

HIZ012>013-220800-
MOLOKAI-

CITY           SKY/WX    TMP DP  RH WIND       PRES   REMARKS
MOLOKAI AIRPT  CLEAR     77  72  84 N5        30.03R
KALAUPAPA      NOT AVBL
MAKAPULAPAI*   NOT AVBL
MOLOKAI 1*     NOT AVBL
PUU ALII*      NOT AVBL
$$

HIZ016-220800-
KAHOOLAWE-

CITY           SKY/WX    TMP DP  RH WIND       PRES   REMARKS
KAHOOLAWE*     NOT AVBL
HAKIOAWA*      NOT AVBL
HONOKANAIA*      N/A     82  71  69 NE13G22   30.02
KANELOA*         N/A     77  70  78 E17G26    29.23R
KEALIALALO*    NOT AVBL
LUA MAKIKA*    NOT AVBL
$$

HIZ014>015-220800-
LANAI-

CITY           SKY/WX    TMP DP  RH WIND       PRES   REMARKS
LANAI CITY     MOCLDY    75  71  87 E10       30.08R
LANAI 1*       NOT AVBL
$$

HIZ017>028-220800-
MAUI-

CITY           SKY/WX    TMP DP  RH WIND       PRES   REMARKS
KAHULUI        CLEAR     79  69  71 NE5       30.01R
KAPALUA-W MAUI NOT AVBL
HANA AIRPORT   MOCLDY    75  72  88 CALM      30.06S
HANA*          NOT AVBL
HALEAKALA SUMM   N/A     46  39  76 N16         N/A
MAALAEA BAY*   NOT AVBL
HALEAKALA*     NOT AVBL
KAUPO GAP*     NOT AVBL
KULA 1*          N/A     59  48  67 E3          N/A
$$

HIZ023>026-220800-
BIG ISLAND OF HAWAII COAST AND LOWER SLOPES-

CITY           SKY/WX    TMP DP  RH WIND       PRES   REMARKS
KAILUA KONA    MOCLDY    83  76  79 W6        29.99R HX  91
HILO           PTCLDY    78  74  87 SW5       30.03R
HONOKAA*       NOT AVBL
KAWAIHAE MWT*  NOT AVBL
KAWAIHAE*        N/A     82 N/A N/A SW9         N/A
SOUTH POINT*   NOT AVBL
UPOLU AIRPORT* NOT AVBL
KAMUELA*       MOSUNNY   68  66  94 NE13      30.15S
HAKALAU*         N/A     54  53  97 W1          N/A
KALOKO-HONOKO* NOT AVBL
PALI 2*          N/A     70  64  83 N8G18       N/A
KEALAKOMO*       N/A     81  72  74 NE12G18     N/A
KAUPULEHU*     NOT AVBL
KAPAPALA*        N/A     71  70  96 CALM        N/A
LOWER KAHUKU*  NOT AVBL
PUHE CS*       NOT AVBL
PUHO CS*       NOT AVBL
PTA KEAMUKU*     N/A     64  61  88 E2G8        N/A
WAIKOLOA*      NOT AVBL
$$

HIZ027>028-220800-
BIG ISLAND OF HAWAII INTERIOR AND SUMMMITS-

CITY           SKY/WX    TMP DP  RH WIND       PRES   REMARKS
BRADSHAW FIELD MOCLDY    58  56  95 E3        30.41R
MK VISITOR CEN NOT AVBL
MAUNA KEA*       N/A     36  21  55 SE23        N/A  WCI  24
MAUNA LOA*       N/A    N/A N/A N/A MISG        N/A
MAUNA LOA 1*   NOT AVBL
PTA KIPUKA*      N/A    N/A N/A N/A NW3G9       N/A
PTA RANGE 17*    N/A     61  61 100 S2          N/A
PTA WEST*        N/A     66  64  94 SW1         N/A
NENE CABIN*    NOT AVBL
AHUMOA*        NOT AVBL
PTA PORTABLE*  NOT AVBL
PUU MALI*      NOT AVBL
$$

HIC003-220800-
NORTHWEST ISLANDS-

CITY           SKY/WX    TMP DP  RH WIND       PRES   REMARKS
MIDWAY ISLAND  PTCLDY    82  72  69 E17       30.07R
MIDWAY NOS*    NOT AVBL
FRENCH FRIGATE NOT AVBL
$$

PHZ110>124-180-220800-
BUOY REPORTS

STATION/POSITION TIME  TEMP    WIND        PRES    WAVE   SWELL
                       AIR SEA DIR/SP/G            HT/PER HT/DIR
                 (UTC) (F)     (DEG/KT/KT) (MB)    (FT/S) (FT/D)
BUOY 51001       NOT AVBL
BUOY 51101       NOT AVBL
BUOY 51100       0700   81 82  120/  6/  8 1017.8
BUOY 51003       0600   82 83   90/ 12/ 14 1014.8R   4/11   3
BUOY 51004       0603   81 81   90/ 14/ 14 1015.6R   4/11   3/350
BARBERS PT BUOY  NOT AVBL
WAIMEA BAY BUOY  0700      83                N/A     3/10
KAILUA BAY BUOY  0700      83                N/A     4/ 9   2/ 70
LANAI BUOY       NOT AVBL
BARBERS PT 2     0700      83                N/A     3/11   2/170
PAUWELA MAUI     0700      81                N/A     4/ 5   2/ 60
HILO             0700      82                N/A     3/11   2/ 70
KANEOHE BAY BUOY NOT AVBL
HANALEI KAUAI    NOT AVBL
KAHULUI HARBOR   0700   81 84   60/  6/  9 1016.0R
HONOLULU HARBOR  0700   82      70/  2/  6 1016.7R
KILO NALU        NOT AVBL
HILO HARBOR      0700   78     250/  5/  5 1016.6R
MOKUOLOE         0700   82 86  100/  6/  8 1017.0R
NAWILIWILI       0700      84                N/A
WHOTS BUOY       NOT AVBL
BUOY 51028       NOT AVBL
$$

......................KEY........................................
  SKY/WX - SKY CONDITIONS/PRESENT WEATHER
  TMP    - TEMPERATURE IN FAHRENHEIT
  DWPT   - DEWPOINT IN FAHRENHEIT
  RH     - RELATIVE HUMIDITY IN PERCENT
  WIND   - DIRECTION AND SPEED /MPH FOR ISLANDS...KTS FOR BUOYS/
  PRES   - MEAN SEA LEVEL PRESSURE IN INCHES OF HG
  VSB    - VISIBILITY IN MILES
  HX     - HEAT INDEX
  WCI    - WIND CHILL INDEX
  VRB    - VARIABLE WIND DIRECTION
  N/A    - NOT AVAILABLE



USA.gov is the U.S. government's official web portal to all federal, state and local government web resources and services.